sat.trackr.live / text

‹ back to catalog

STARLINK-11709 [DTC]

NORAD 64065 · 2025-107B

PAYLOAD ACTIVE UNKNOWN

§ Identity

Operator
Country
US
Launch date
2025-05-21
Launch site
AFETR
Launch vehicle
Mass (kg)
RCS (m²)

Purposes: comms

External: N2YO · Heavens-Above · Gunter

§ Orbital elements

Epoch: 2026-05-24T23:29:05.773056Z

Period
91.66 min
Inclination
42.9996°
Eccentricity
0.0000571
Mean motion
15.71002038 rev/d
Perigee alt
355.6 km
Apogee alt
356.4 km
Semi-major
6,734.2 km
B*
1.4039e-3
RAAN
358.6269°
Arg perigee
281.1828°
Mean anomaly
78.8976°
Rev number
5,929

§ Raw data

STARLINK-11709 [DTC]1 64065U 25107B   26144.97853904  .00185013  00000+0  14039-2 0  99942 64065  42.9996 358.6269 0000571 281.1828  78.8976 15.71002038 59291

JSON: /api/v1/satellites/64065 · /tle

For live sub-satellite position, see the globe view (requires WebGL).

§ Visibility from observer

Set your observer location to see the next 7 days of passes ≥ 10°. The values pass through the URL so the page stays shareable.

No JS? Fill the form by hand. The geolocation button needs JavaScript.